Location: Haliburton Scout Reserve
(45.0900°N, 78.3200°W)
Time: 13:01:18
(UTC-05:00)

Transit 4A - All Passes

Search period start: 07 February 2023 00:00
Search period end: 17 February 2023 00:00
Orbit: 870 x 973 km, 66.8° (Epoch: 06 February)

Date Brightness Start Highest point End Pass type
(mag) Time Alt. Az. Time Alt. Az. Time Alt. Az.
07 Feb - 01:34:23 10° NNW 01:40:21 67° NE 01:46:26 10° SE night (unlit)
07 Feb - 03:21:38 10° WNW 03:26:11 23° WSW 03:30:49 10° SSW night (unlit)
07 Feb - 16:43:14 10° SSW 16:48:55 60° ESE 16:54:40 10° NE daylight
07 Feb - 18:30:38 10° WSW 18:35:38 29° NW 18:40:42 10° NNE visible
07 Feb - 20:23:41 10° NNW 20:24:07 10° NNW 20:24:34 10° NNW visible
07 Feb - 23:57:52 10° NNW 00:02:29 23° NE 00:07:10 10° E night (unlit)
08 Feb - 01:43:35 10° NNW 01:49:35 88° WSW 01:55:44 10° SSE night (unlit)
08 Feb - 03:31:49 10° WNW 03:35:07 15° WSW 03:38:25 10° SW night (unlit)
08 Feb - 15:09:52 10° SE 15:12:40 14° ESE 15:15:27 10° ENE daylight
08 Feb - 16:52:15 10° SSW 16:58:05 86° ESE 17:03:57 10° NNE daylight
08 Feb - 18:40:42 10° W 18:45:11 22° NW 18:49:41 10° NNE visible
08 Feb - 22:22:40 10° N 22:23:32 10° NNE 22:24:25 10° NNE visible
09 Feb - 00:06:51 10° NNW 00:12:01 29° NE 00:17:16 10° ESE night (unlit)
09 Feb - 01:52:51 10° NW 01:58:45 62° WSW 02:04:47 10° SSE night (unlit)
09 Feb - 15:17:18 10° SSE 15:21:33 21° ESE 15:25:47 10° ENE daylight
09 Feb - 17:01:32 10° SW 17:07:19 67° NW 17:13:09 10° NNE daylight
09 Feb - 18:51:00 10° WNW 18:54:48 17° NNW 18:58:37 10° N visible
09 Feb - 22:30:56 10° N 22:33:22 12° NNE 22:35:48 10° NE visible
10 Feb - 00:15:54 10° NNW 00:21:28 39° NE 00:27:09 10° ESE night (unlit)
10 Feb - 02:02:15 10° NW 02:07:52 43° WSW 02:13:36 10° S night (unlit)
10 Feb - 15:25:28 10° S 15:30:31 31° ESE 15:35:34 10° NE daylight
10 Feb - 17:11:01 10° SW 17:16:37 48° NW 17:22:17 10° NNE daylight
10 Feb - 19:01:33 10° WNW 19:04:30 14° NNW 19:07:28 10° N visible
10 Feb - 22:39:41 10° N 22:43:06 15° NNE 22:46:34 10° ENE visible
11 Feb - 00:24:58 10° NNW 00:30:50 54° NE 00:36:49 10° SE night (unlit)
11 Feb - 02:11:48 10° NW 02:16:54 29° WSW 02:22:06 10° SSW night (unlit)
11 Feb - 15:34:02 10° S 15:39:33 46° ESE 15:45:05 10° NE daylight
11 Feb - 17:20:44 10° WSW 17:26:01 35° NW 17:31:22 10° NNE daylight
11 Feb - 19:12:26 10° NW 19:14:16 11° NNW 19:16:07 10° N visible
11 Feb - 22:48:34 10° N 22:52:47 19° NE 22:57:02 10° E visible
12 Feb - 00:34:08 10° NNW 00:40:08 75° NE 00:46:16 10° SE night (unlit)
12 Feb - 02:21:38 10° WNW 02:25:52 20° WSW 02:30:09 10° SSW night (unlit)
12 Feb - 15:42:53 10° SSW 15:48:39 68° ESE 15:54:27 10° NE daylight
12 Feb - 17:30:39 10° W 17:35:29 26° NW 17:40:23 10° NNE daylight
12 Feb - 22:57:32 10° NNW 23:02:21 25° NE 23:07:17 10° E visible
13 Feb - 00:43:20 10° NW 00:49:21 79° WSW 00:55:30 10° SSE night (unlit)
13 Feb - 02:32:07 10° WNW 02:34:46 13° WSW 02:37:25 10° SW night (unlit)
13 Feb - 14:08:54 10° SE 14:12:18 16° ESE 14:15:42 10° ENE daylight
13 Feb - 15:52:01 10° SSW 15:57:50 85° WNW 16:03:43 10° NNE daylight
13 Feb - 17:40:48 10° W 17:45:04 20° NW 17:49:21 10° NNE daylight
13 Feb - 21:21:55 10° N 21:23:31 11° NNE 21:25:07 10° NE visible
13 Feb - 23:06:32 10° NNW 23:11:52 32° NE 23:17:18 10° ESE visible
14 Feb - 00:52:39 10° NW 00:58:30 55° WSW 01:04:28 10° SSE night (unlit)
14 Feb - 14:16:40 10° SSE 14:21:12 24° ESE 14:25:46 10° NE daylight
14 Feb - 16:01:21 10° SW 16:07:05 60° NW 16:12:53 10° NNE daylight
14 Feb - 17:51:10 10° WNW 17:54:42 16° NNW 17:58:16 10° N daylight
14 Feb - 21:30:29 10° N 21:33:18 13° NNE 21:36:08 10° NE visible
14 Feb - 23:15:35 10° NNW 23:21:17 44° NE 23:27:06 10° ESE visible
15 Feb - 01:02:06 10° NW 01:07:34 38° WSW 01:13:10 10° S night (unlit)
15 Feb - 14:24:58 10° S 14:30:11 36° ESE 14:35:27 10° NE daylight
15 Feb - 16:10:55 10° WSW 16:16:25 43° NW 16:21:59 10° NNE daylight
15 Feb - 18:01:48 10° NW 18:04:26 13° NNW 18:07:04 10° N visible
15 Feb - 21:39:18 10° N 21:43:02 17° NNE 21:46:47 10° ENE visible
15 Feb - 23:24:41 10° NNW 23:30:38 60° NE 23:36:42 10° SE visible
16 Feb - 01:11:43 10° NW 01:16:35 26° WSW 01:21:32 10° SSW night (unlit)
16 Feb - 14:33:38 10° S 14:39:14 53° ESE 14:44:54 10° NE daylight
16 Feb - 16:20:42 10° WSW 16:25:51 32° NW 16:31:04 10° NNE daylight
16 Feb - 18:12:53 10° NNW 18:14:13 11° NNW 18:15:35 10° N visible
16 Feb - 21:48:13 10° NNW 21:52:40 21° NE 21:57:11 10° E visible
16 Feb - 23:33:52 10° NNW 23:39:54 84° ENE 23:46:04 10° SSE visible
